Time,TemperatureF,DewpointF,PressureIn,WindDirection,WindDirectionDegrees,WindSpeedMPH,WindSpeedGustMPH,Humidity,HourlyPrecipIn,Conditions,Clouds,dailyrainin,SoftwareType,DateUTC
2013-07-01 00:02:00,68.9,50.0,28.56,South,186,0.0,0.0,50,0.00,,,-99.99,wx200d/1.3,2013-07-01 04:02:00,
2013-07-01 00:04:00,68.9,50.0,28.56,South,186,0.0,0.0,50,0.00,,,-99.99,wx200d/1.3,2013-07-01 04:04:00,
2013-07-01 00:10:00,68.7,48.0,28.56,SSW,203,0.0,0.0,50,0.00,,,-99.99,wx200d/1.3,2013-07-01 04:10:00,
2013-07-01 00:12:00,68.7,50.0,28.56,SSW,198,0.0,0.0,51,0.00,,,-99.99,wx200d/1.3,2013-07-01 04:12:00,
2013-07-01 00:18:00,68.7,50.0,28.56,South,188,0.0,0.0,52,0.00,,,-99.99,wx200d/1.3,2013-07-01 04:18:00,
2013-07-01 00:24:00,68.7,50.0,28.56,WSW,238,0.0,0.0,52,0.00,,,-99.99,wx200d/1.3,2013-07-01 04:24:00,
2013-07-01 00:30:00,68.7,50.0,28.56,SW,232,0.0,0.0,53,0.00,,,-99.99,wx200d/1.3,2013-07-01 04:30:00,
2013-07-01 00:36:00,68.7,50.0,28.56,SW,220,0.0,0.0,54,0.00,,,-99.99,wx200d/1.3,2013-07-01 04:36:00,
2013-07-01 00:42:00,68.7,50.0,28.56,WSW,238,0.0,0.0,54,0.00,,,-99.99,wx200d/1.3,2013-07-01 04:42:00,
2013-07-01 00:48:00,68.7,50.0,28.56,SW,234,0.0,0.0,54,0.00,,,-99.99,wx200d/1.3,2013-07-01 04:48:00,
2013-07-01 00:54:00,68.7,52.0,28.56,WSW,239,0.0,0.0,55,0.00,,,-99.99,wx200d/1.3,2013-07-01 04:54:00,
2013-07-01 01:00:00,68.7,52.0,28.56,SW,222,0.0,2.2,55,0.00,,,-99.99,wx200d/1.3,2013-07-01 05:00:00,
2013-07-01 01:06:00,68.7,52.0,28.56,WSW,244,0.0,0.0,55,0.00,,,-99.99,wx200d/1.3,2013-07-01 05:06:00,
2013-07-01 01:12:00,68.7,52.0,28.56,WSW,238,0.0,0.0,55,0.00,,,-99.99,wx200d/1.3,2013-07-01 05:12:00,
2013-07-01 01:18:00,68.7,52.0,28.56,SW,224,0.0,0.0,56,0.00,,,-99.99,wx200d/1.3,2013-07-01 05:18:00,
2013-07-01 01:24:00,68.7,52.0,28.56,South,187,0.0,0.0,56,0.00,,,-99.99,wx200d/1.3,2013-07-01 05:24:00,
2013-07-01 01:30:00,68.7,52.0,28.56,SSW,213,0.0,0.0,56,0.00,,,-99.99,wx200d/1.3,2013-07-01 05:30:00,
2013-07-01 01:36:00,68.5,52.0,28.56,SSW,211,0.0,0.0,57,0.00,,,-99.99,wx200d/1.3,2013-07-01 05:36:00,
2013-07-01 01:42:00,68.5,52.0,28.56,SW,234,0.0,0.0,57,0.00,,,-99.99,wx200d/1.3,2013-07-01 05:42:00,
2013-07-01 01:48:00,68.5,54.0,28.56,SSE,167,0.0,0.0,58,0.00,,,-99.99,wx200d/1.3,2013-07-01 05:48:00,
2013-07-01 01:54:00,68.5,54.0,28.56,South,171,2.7,0.0,58,0.00,,,-99.99,wx200d/1.3,2013-07-01 05:54:00,
2013-07-01 02:00:00,68.5,54.0,28.56,SSE,153,0.0,2.7,59,0.00,,,-99.99,wx200d/1.3,2013-07-01 06:00:00,
2013-07-01 02:06:00,68.5,54.0,28.56,West,265,0.0,0.0,59,0.00,,,-99.99,wx200d/1.3,2013-07-01 06:06:00,
2013-07-01 02:12:00,68.5,54.0,28.56,WSW,240,0.0,0.0,59,0.00,,,-99.99,wx200d/1.3,2013-07-01 06:12:00,
2013-07-01 02:18:00,68.5,54.0,28.56,SW,215,0.0,0.0,60,0.00,,,-99.99,wx200d/1.3,2013-07-01 06:18:00,
2013-07-01 02:24:00,68.5,54.0,28.56,WSW,243,0.0,0.0,60,0.00,,,-99.99,wx200d/1.3,2013-07-01 06:24:00,
2013-07-01 02:30:00,68.5,54.0,28.56,SSW,209,0.0,3.1,60,0.00,,,-99.99,wx200d/1.3,2013-07-01 06:30:00,
2013-07-01 02:36:00,68.4,54.0,28.56,SSW,211,0.0,0.0,61,0.00,,,-99.99,wx200d/1.3,2013-07-01 06:36:00,
2013-07-01 02:42:00,68.4,54.0,28.56,SSW,213,0.0,0.0,61,0.00,,,-99.99,wx200d/1.3,2013-07-01 06:42:00,
2013-07-01 02:48:00,68.4,54.0,28.56,South,177,0.0,0.0,61,0.00,,,-99.99,wx200d/1.3,2013-07-01 06:48:00,
2013-07-01 02:54:00,68.2,54.0,28.56,SSW,196,0.0,0.0,61,0.00,,,-99.99,wx200d/1.3,2013-07-01 06:54:00,
2013-07-01 03:00:00,68.2,55.0,28.56,West,259,0.0,0.0,62,0.00,,,-99.99,wx200d/1.3,2013-07-01 07:00:00,
2013-07-01 03:06:00,68.2,55.0,28.56,South,190,0.0,0.0,62,0.00,,,-99.99,wx200d/1.3,2013-07-01 07:06:00,
2013-07-01 03:12:00,68.2,55.0,28.56,WSW,251,0.0,0.0,62,0.00,,,-99.99,wx200d/1.3,2013-07-01 07:12:00,
2013-07-01 03:18:00,68.4,55.0,28.56,WSW,256,0.0,0.0,63,0.00,,,-99.99,wx200d/1.3,2013-07-01 07:18:00,
2013-07-01 03:24:00,68.4,55.0,28.56,SW,227,0.0,0.0,63,0.00,,,-99.99,wx200d/1.3,2013-07-01 07:24:00,
2013-07-01 03:30:00,68.4,55.0,28.56,SW,235,0.0,0.0,63,0.00,,,-99.99,wx200d/1.3,2013-07-01 07:30:00,
2013-07-01 03:36:00,68.4,55.0,28.56,SW,224,0.0,0.0,63,0.00,,,-99.99,wx200d/1.3,2013-07-01 07:36:00,
2013-07-01 03:42:00,68.4,55.0,28.56,South,187,0.0,0.0,63,0.00,,,-99.99,wx200d/1.3,2013-07-01 07:42:00,
2013-07-01 03:48:00,68.4,55.0,28.56,WSW,252,0.0,0.0,63,0.00,,,-99.99,wx200d/1.3,2013-07-01 07:48:00,
2013-07-01 03:54:00,68.4,55.0,28.56,WSW,257,0.0,0.0,63,0.00,,,-99.99,wx200d/1.3,2013-07-01 07:54:00,
2013-07-01 04:00:00,68.4,55.0,28.56,SW,214,0.0,0.0,64,0.00,,,-99.99,wx200d/1.3,2013-07-01 08:00:00,
2013-07-01 04:06:00,68.4,55.0,28.56,SSW,193,0.0,0.0,64,0.00,,,-99.99,wx200d/1.3,2013-07-01 08:06:00,
2013-07-01 04:12:00,68.4,55.0,28.56,SSW,192,0.0,0.0,64,0.00,,,-99.99,wx200d/1.3,2013-07-01 08:12:00,
2013-07-01 04:18:00,68.4,55.0,28.56,SSW,208,0.0,0.0,64,0.00,,,-99.99,wx200d/1.3,2013-07-01 08:18:00,
2013-07-01 04:24:00,68.4,55.0,28.56,WSW,238,0.0,0.0,64,0.00,,,-99.99,wx200d/1.3,2013-07-01 08:24:00,
2013-07-01 04:30:00,68.4,55.0,28.56,WSW,241,0.0,0.0,64,0.00,,,-99.99,wx200d/1.3,2013-07-01 08:30:00,
2013-07-01 04:36:00,68.4,55.0,28.56,WSW,241,0.0,0.0,64,0.00,,,-99.99,wx200d/1.3,2013-07-01 08:36:00,
2013-07-01 04:42:00,68.4,55.0,28.56,WSW,241,0.0,0.0,64,0.00,,,-99.99,wx200d/1.3,2013-07-01 08:42:00,
2013-07-01 04:48:00,68.4,55.0,28.56,SSW,203,0.0,0.0,65,0.00,,,-99.99,wx200d/1.3,2013-07-01 08:48:00,
2013-07-01 04:54:00,68.5,55.0,28.59,South,180,0.0,2.7,65,0.00,,,-99.99,wx200d/1.3,2013-07-01 08:54:00,
2013-07-01 05:00:00,68.5,55.0,28.59,WSW,252,0.0,0.0,65,0.00,,,-99.99,wx200d/1.3,2013-07-01 09:00:00,
2013-07-01 05:06:00,68.5,55.0,28.59,WSW,252,0.0,0.0,65,0.00,,,-99.99,wx200d/1.3,2013-07-01 09:06:00,
2013-07-01 05:12:00,68.4,55.0,28.59,WSW,252,0.0,0.0,65,0.00,,,-99.99,wx200d/1.3,2013-07-01 09:12:00,
2013-07-01 05:18:00,68.4,55.0,28.59,WSW,252,0.0,0.0,65,0.00,,,-99.99,wx200d/1.3,2013-07-01 09:18:00,
2013-07-01 05:24:00,68.4,55.0,28.59,WSW,252,0.0,0.0,65,0.00,,,-99.99,wx200d/1.3,2013-07-01 09:24:00,
2013-07-01 05:30:00,68.4,55.0,28.59,WSW,252,0.0,0.0,65,0.00,,,-99.99,wx200d/1.3,2013-07-01 09:30:00,
2013-07-01 05:36:00,68.4,55.0,28.59,WSW,252,0.0,0.0,65,0.00,,,-99.99,wx200d/1.3,2013-07-01 09:36:00,
2013-07-01 05:42:00,68.4,55.0,28.59,SSW,212,0.0,0.0,65,0.00,,,-99.99,wx200d/1.3,2013-07-01 09:42:00,
2013-07-01 05:48:00,68.5,55.0,28.59,SSW,195,0.0,0.0,65,0.00,,,-99.99,wx200d/1.3,2013-07-01 09:48:00,
2013-07-01 05:54:00,68.5,55.0,28.59,SSW,195,0.0,0.0,65,0.00,,,-99.99,wx200d/1.3,2013-07-01 09:54:00,
2013-07-01 06:00:00,68.5,55.0,28.59,SSW,195,0.0,0.0,66,0.00,,,-99.99,wx200d/1.3,2013-07-01 10:00:00,
2013-07-01 06:06:00,68.5,55.0,28.59,SSW,195,0.0,0.0,66,0.00,,,-99.99,wx200d/1.3,2013-07-01 10:06:00,
2013-07-01 06:12:00,68.5,55.0,28.59,SSW,195,0.0,0.0,66,0.00,,,-99.99,wx200d/1.3,2013-07-01 10:12:00,
2013-07-01 06:18:00,68.7,55.0,28.59,SSW,195,0.0,0.0,66,0.00,,,-99.99,wx200d/1.3,2013-07-01 10:18:00,
2013-07-01 06:24:00,68.7,55.0,28.59,SSW,195,0.0,0.0,66,0.00,,,-99.99,wx200d/1.3,2013-07-01 10:24:00,
2013-07-01 06:30:00,68.7,55.0,28.59,SSW,195,0.0,0.0,66,0.00,,,-99.99,wx200d/1.3,2013-07-01 10:30:00,
2013-07-01 06:36:00,68.7,55.0,28.59,WSW,251,0.0,0.0,66,0.00,,,-99.99,wx200d/1.3,2013-07-01 10:36:00,
2013-07-01 06:42:00,68.9,57.0,28.59,SSW,211,0.0,0.0,66,0.00,,,-99.99,wx200d/1.3,2013-07-01 10:42:00,
2013-07-01 06:48:00,68.9,57.0,28.59,SSW,194,0.0,0.0,66,0.00,,,-99.99,wx200d/1.3,2013-07-01 10:48:00,
2013-07-01 06:54:00,68.9,57.0,28.59,SW,222,0.0,0.0,66,0.00,,,-99.99,wx200d/1.3,2013-07-01 10:54:00,
2013-07-01 07:00:00,68.9,57.0,28.59,SW,222,0.0,0.0,66,0.00,,,-99.99,wx200d/1.3,2013-07-01 11:00:00,
2013-07-01 07:06:00,69.1,57.0,28.61,SW,217,0.0,0.0,66,0.00,,,-99.99,wx200d/1.3,2013-07-01 11:06:00,
2013-07-01 07:12:00,69.1,57.0,28.61,SW,217,0.0,0.0,66,0.00,,,-99.99,wx200d/1.3,2013-07-01 11:12:00,
2013-07-01 07:18:00,69.1,57.0,28.61,SSW,205,0.0,0.0,66,0.00,,,-99.99,wx200d/1.3,2013-07-01 11:18:00,
2013-07-01 07:24:00,69.1,57.0,28.61,SSW,205,0.0,0.0,66,0.00,,,-99.99,wx200d/1.3,2013-07-01 11:24:00,
2013-07-01 07:30:00,69.3,57.0,28.61,SW,220,0.0,0.0,66,0.00,,,-99.99,wx200d/1.3,2013-07-01 11:30:00,
2013-07-01 07:36:00,69.3,57.0,28.61,SW,222,0.0,0.0,66,0.00,,,-99.99,wx200d/1.3,2013-07-01 11:36:00,
2013-07-01 07:42:00,69.3,57.0,28.61,WSW,256,0.0,0.0,65,0.00,,,-99.99,wx200d/1.3,2013-07-01 11:42:00,
2013-07-01 07:48:00,69.3,57.0,28.61,SSW,198,0.0,0.0,64,0.00,,,-99.99,wx200d/1.3,2013-07-01 11:48:00,
2013-07-01 07:54:00,69.4,57.0,28.61,SSW,207,0.0,0.0,64,0.00,,,-99.99,wx200d/1.3,2013-07-01 11:54:00,
2013-07-01 08:00:00,69.4,55.0,28.61,SSW,193,0.0,0.0,62,0.00,,,-99.99,wx200d/1.3,2013-07-01 12:00:00,
2013-07-01 08:06:00,69.4,55.0,28.61,South,191,0.0,2.7,60,0.00,,,-99.99,wx200d/1.3,2013-07-01 12:06:00,
2013-07-01 08:12:00,69.6,54.0,28.61,SSW,196,0.0,0.0,58,0.00,,,-99.99,wx200d/1.3,2013-07-01 12:12:00,
2013-07-01 08:18:00,69.6,50.0,28.61,SSW,194,0.0,0.0,50,0.00,,,-99.99,wx200d/1.3,2013-07-01 12:18:00,
2013-07-01 08:24:00,69.6,48.0,28.61,South,173,0.0,0.0,47,0.00,,,-99.99,wx200d/1.3,2013-07-01 12:24:00,
2013-07-01 08:30:00,69.8,48.0,28.61,South,188,0.0,0.0,45,0.00,,,-99.99,wx200d/1.3,2013-07-01 12:30:00,
2013-07-01 08:36:00,70.0,46.0,28.61,SW,233,0.0,0.0,43,0.00,,,-99.99,wx200d/1.3,2013-07-01 12:36:00,
2013-07-01 08:42:00,70.2,46.0,28.61,SSW,195,0.0,0.0,43,0.00,,,-99.99,wx200d/1.3,2013-07-01 12:42:00,
2013-07-01 08:48:00,70.2,46.0,28.61,SSW,205,0.0,0.0,42,0.00,,,-99.99,wx200d/1.3,2013-07-01 12:48:00,
2013-07-01 08:54:00,70.2,45.0,28.61,SSW,194,0.0,0.0,40,0.00,,,-99.99,wx200d/1.3,2013-07-01 12:54:00,
2013-07-01 09:00:00,70.3,43.0,28.61,SSW,193,0.0,0.0,38,0.00,,,-99.99,wx200d/1.3,2013-07-01 13:00:00,
2013-07-01 09:06:00,70.5,43.0,28.61,SSW,193,0.0,0.0,38,0.00,,,-99.99,wx200d/1.3,2013-07-01 13:06:00,
2013-07-01 09:12:00,70.7,45.0,28.61,SSW,196,0.0,0.0,37,0.00,,,-99.99,wx200d/1.3,2013-07-01 13:12:00,
2013-07-01 09:18:00,70.9,43.0,28.61,SW,224,0.0,0.0,36,0.00,,,-99.99,wx200d/1.3,2013-07-01 13:18:00,
2013-07-01 09:24:00,71.2,43.0,28.61,SW,235,0.0,0.0,36,0.00,,,-99.99,wx200d/1.3,2013-07-01 13:24:00,
2013-07-01 09:30:00,71.2,43.0,28.61,South,186,0.0,0.0,35,0.00,,,-99.99,wx200d/1.3,2013-07-01 13:30:00,
2013-07-01 09:36:00,71.2,43.0,28.61,SSW,208,0.0,0.0,34,0.00,,,-99.99,wx200d/1.3,2013-07-01 13:36:00,
2013-07-01 09:42:00,71.2,43.0,28.61,SW,230,0.0,0.0,34,0.00,,,-99.99,wx200d/1.3,2013-07-01 13:42:00,
2013-07-01 09:48:00,71.4,43.0,28.61,WSW,245,0.0,0.0,34,0.00,,,-99.99,wx200d/1.3,2013-07-01 13:48:00,
2013-07-01 09:54:00,71.4,43.0,28.61,SW,219,0.0,0.0,34,0.00,,,-99.99,wx200d/1.3,2013-07-01 13:54:00,
2013-07-01 10:00:00,71.2,43.0,28.61,SW,224,0.0,0.0,34,0.00,,,-99.99,wx200d/1.3,2013-07-01 14:00:00,
2013-07-01 10:06:00,71.4,41.0,28.61,SW,224,0.0,0.0,33,0.00,,,-99.99,wx200d/1.3,2013-07-01 14:06:00,
2013-07-01 10:12:00,71.6,41.0,28.61,SSW,197,0.0,0.0,33,0.00,,,-99.99,wx200d/1.3,2013-07-01 14:12:00,
2013-07-01 10:18:00,71.8,41.0,28.61,SSW,197,0.0,0.0,33,0.00,,,-99.99,wx200d/1.3,2013-07-01 14:18:00,
2013-07-01 10:24:00,72.0,41.0,28.61,SW,227,0.0,0.0,32,0.00,,,-99.99,wx200d/1.3,2013-07-01 14:24:00,
2013-07-01 10:30:00,72.0,41.0,28.61,SW,217,0.0,0.0,32,0.00,,,-99.99,wx200d/1.3,2013-07-01 14:30:00,
2013-07-01 10:36:00,72.0,39.0,28.61,SW,214,0.0,0.0,31,0.00,,,-99.99,wx200d/1.3,2013-07-01 14:36:00,
2013-07-01 10:42:00,71.8,39.0,28.61,SW,214,0.0,0.0,31,0.00,,,-99.99,wx200d/1.3,2013-07-01 14:42:00,
2013-07-01 10:48:00,71.2,41.0,28.61,SW,214,0.0,0.0,32,0.00,,,-99.99,wx200d/1.3,2013-07-01 14:48:00,
2013-07-01 10:54:00,70.9,41.0,28.64,SW,214,0.0,0.0,33,0.00,,,-99.99,wx200d/1.3,2013-07-01 14:54:00,
2013-07-01 11:00:00,70.7,43.0,28.64,SW,214,0.0,0.0,34,0.00,,,-99.99,wx200d/1.3,2013-07-01 15:00:00,
2013-07-01 11:06:00,70.5,41.0,28.64,SW,214,0.0,0.0,35,0.00,,,-99.99,wx200d/1.3,2013-07-01 15:06:00,
2013-07-01 11:12:00,70.3,41.0,28.64,SW,214,0.0,0.0,35,0.00,,,-99.99,wx200d/1.3,2013-07-01 15:12:00,
2013-07-01 11:18:00,70.3,41.0,28.64,SW,214,0.0,0.0,36,0.00,,,-99.99,wx200d/1.3,2013-07-01 15:18:00,
2013-07-01 11:24:00,70.3,43.0,28.64,SW,214,0.0,0.0,37,0.00,,,-99.99,wx200d/1.3,2013-07-01 15:24:00,
2013-07-01 11:30:00,70.2,43.0,28.64,SW,214,0.0,0.0,38,0.00,,,-99.99,wx200d/1.3,2013-07-01 15:30:00,
2013-07-01 11:36:00,70.2,43.0,28.64,SW,214,0.0,0.0,38,0.43,,,-99.99,wx200d/1.3,2013-07-01 15:36:00,
2013-07-01 11:42:00,70.2,43.0,28.64,SW,214,0.0,0.0,38,0.43,,,-99.99,wx200d/1.3,2013-07-01 15:42:00,
2013-07-01 11:48:00,70.3,45.0,28.64,SW,214,0.0,0.0,39,0.43,,,-99.99,wx200d/1.3,2013-07-01 15:48:00,
2013-07-01 11:54:00,70.5,45.0,28.64,SW,214,0.0,0.0,40,0.43,,,-99.99,wx200d/1.3,2013-07-01 15:54:00,
2013-07-01 12:00:00,70.5,45.0,28.64,SW,214,0.0,0.0,40,0.16,,,-99.99,wx200d/1.3,2013-07-01 16:00:00,
2013-07-01 12:06:00,70.5,45.0,28.61,SW,214,0.0,0.0,40,0.16,,,-99.99,wx200d/1.3,2013-07-01 16:06:00,
2013-07-01 12:12:00,70.5,45.0,28.61,SW,214,0.0,0.0,41,0.16,,,-99.99,wx200d/1.3,2013-07-01 16:12:00,
2013-07-01 12:18:00,70.5,46.0,28.61,SW,214,0.0,0.0,42,0.16,,,-99.99,wx200d/1.3,2013-07-01 16:18:00,
2013-07-01 12:24:00,70.3,46.0,28.61,SW,214,0.0,0.0,42,0.12,,,-99.99,wx200d/1.3,2013-07-01 16:24:00,
2013-07-01 12:30:00,70.3,46.0,28.61,SW,214,0.0,0.0,42,0.12,,,-99.99,wx200d/1.3,2013-07-01 16:30:00,
2013-07-01 12:36:00,70.2,46.0,28.61,SW,214,0.0,0.0,42,0.12,,,-99.99,wx200d/1.3,2013-07-01 16:36:00,
2013-07-01 12:42:00,70.3,46.0,28.61,SW,214,0.0,0.0,43,0.12,,,-99.99,wx200d/1.3,2013-07-01 16:42:00,
2013-07-01 12:48:00,70.3,46.0,28.61,SW,214,0.0,0.0,43,0.12,,,-99.99,wx200d/1.3,2013-07-01 16:48:00,
2013-07-01 12:54:00,70.3,46.0,28.61,SW,214,0.0,0.0,43,0.16,,,-99.99,wx200d/1.3,2013-07-01 16:54:00,
2013-07-01 13:00:00,70.3,46.0,28.61,SW,214,0.0,0.0,44,0.16,,,-99.99,wx200d/1.3,2013-07-01 17:00:00,
2013-07-01 13:06:00,70.2,46.0,28.61,SW,214,0.0,0.0,44,0.16,,,-99.99,wx200d/1.3,2013-07-01 17:06:00,
2013-07-01 13:12:00,70.0,48.0,28.61,SW,214,0.0,0.0,45,0.16,,,-99.99,wx200d/1.3,2013-07-01 17:12:00,
2013-07-01 13:18:00,70.0,48.0,28.61,SW,214,0.0,0.0,45,0.16,,,-99.99,wx200d/1.3,2013-07-01 17:18:00,
2013-07-01 13:24:00,69.8,48.0,28.64,SW,214,0.0,0.0,45,0.16,,,-99.99,wx200d/1.3,2013-07-01 17:24:00,
2013-07-01 13:30:00,69.8,48.0,28.64,SW,214,0.0,0.0,46,0.16,,,-99.99,wx200d/1.3,2013-07-01 17:30:00,
2013-07-01 13:36:00,69.8,48.0,28.64,SW,214,0.0,0.0,46,0.24,,,-99.99,wx200d/1.3,2013-07-01 17:36:00,
2013-07-01 13:42:00,69.8,48.0,28.64,SW,214,0.0,0.0,47,0.28,,,-99.99,wx200d/1.3,2013-07-01 17:42:00,
2013-07-01 13:48:00,70.0,50.0,28.64,SW,214,0.0,0.0,48,0.28,,,-99.99,wx200d/1.3,2013-07-01 17:48:00,
2013-07-01 13:54:00,70.0,50.0,28.61,SW,214,0.0,0.0,48,0.28,,,-99.99,wx200d/1.3,2013-07-01 17:54:00,
2013-07-01 14:00:00,70.3,50.0,28.61,SW,214,0.0,0.0,50,0.28,,,-99.99,wx200d/1.3,2013-07-01 18:00:00,
2013-07-01 14:06:00,70.3,50.0,28.61,SW,214,0.0,0.0,50,0.28,,,-99.99,wx200d/1.3,2013-07-01 18:06:00,
2013-07-01 14:12:00,70.7,52.0,28.61,SW,214,0.0,0.0,50,0.28,,,-99.99,wx200d/1.3,2013-07-01 18:12:00,
2013-07-01 14:18:00,71.1,54.0,28.61,SW,214,0.0,0.0,52,0.12,,,-99.99,wx200d/1.3,2013-07-01 18:18:00,
2013-07-01 14:24:00,71.2,54.0,28.61,SW,214,0.0,0.0,53,0.12,,,-99.99,wx200d/1.3,2013-07-01 18:24:00,
2013-07-01 14:30:00,71.4,54.0,28.61,SW,214,0.0,0.0,52,0.12,,,-99.99,wx200d/1.3,2013-07-01 18:30:00,
2013-07-01 14:36:00,71.4,52.0,28.61,WSW,257,0.0,0.0,51,0.12,,,-99.99,wx200d/1.3,2013-07-01 18:36:00,
2013-07-01 14:42:00,71.4,52.0,28.61,SSW,194,0.0,0.0,51,0.12,,,-99.99,wx200d/1.3,2013-07-01 18:42:00,
2013-07-01 14:48:00,71.4,54.0,28.61,ENE,70,0.0,0.0,53,0.12,,,-99.99,wx200d/1.3,2013-07-01 18:48:00,
2013-07-01 14:54:00,71.6,54.0,28.61,ENE,70,0.0,0.0,54,0.12,,,-99.99,wx200d/1.3,2013-07-01 18:54:00,
2013-07-01 15:00:00,71.6,54.0,28.61,ENE,70,0.0,0.0,54,0.12,,,-99.99,wx200d/1.3,2013-07-01 19:00:00,
2013-07-01 15:06:00,72.0,55.0,28.61,ENE,77,0.0,0.0,56,0.12,,,-99.99,wx200d/1.3,2013-07-01 19:06:00,
2013-07-01 15:12:00,72.1,55.0,28.61,East,80,0.0,0.0,57,0.12,,,-99.99,wx200d/1.3,2013-07-01 19:12:00,
2013-07-01 15:18:00,72.0,55.0,28.61,East,80,0.0,0.0,56,0.12,,,-99.99,wx200d/1.3,2013-07-01 19:18:00,
2013-07-01 15:24:00,71.6,55.0,28.61,South,186,0.0,0.0,55,0.12,,,-99.99,wx200d/1.3,2013-07-01 19:24:00,
2013-07-01 15:30:00,71.4,55.0,28.61,South,186,0.0,0.0,57,0.12,,,-99.99,wx200d/1.3,2013-07-01 19:30:00,
2013-07-01 15:36:00,71.4,55.0,28.61,SSW,193,0.0,0.0,57,0.12,,,-99.99,wx200d/1.3,2013-07-01 19:36:00,
2013-07-01 15:42:00,71.4,55.0,28.61,SSW,193,0.0,0.0,58,0.12,,,-99.99,wx200d/1.3,2013-07-01 19:42:00,
2013-07-01 15:48:00,71.4,57.0,28.61,South,178,0.0,0.0,60,0.12,,,-99.99,wx200d/1.3,2013-07-01 19:48:00,
2013-07-01 15:54:00,71.2,57.0,28.61,South,178,0.0,0.0,60,0.12,,,-99.99,wx200d/1.3,2013-07-01 19:54:00,
2013-07-01 16:00:00,71.1,57.0,28.61,WNW,283,0.0,0.0,61,0.04,,,-99.99,wx200d/1.3,2013-07-01 20:00:00,
2013-07-01 16:06:00,70.7,57.0,28.61,South,183,0.0,0.0,61,0.04,,,-99.99,wx200d/1.3,2013-07-01 20:06:00,
2013-07-01 16:12:00,70.5,55.0,28.61,South,184,0.0,0.0,61,0.39,,,-99.99,wx200d/1.3,2013-07-01 20:12:00,
2013-07-01 16:18:00,70.2,55.0,28.61,South,191,0.0,0.0,60,0.39,,,-99.99,wx200d/1.3,2013-07-01 20:18:00,
2013-07-01 16:24:00,70.0,55.0,28.61,WSW,238,0.0,0.0,60,0.39,,,-99.99,wx200d/1.3,2013-07-01 20:24:00,
2013-07-01 16:30:00,70.0,55.0,28.61,SSW,195,0.0,0.0,61,0.39,,,-99.99,wx200d/1.3,2013-07-01 20:30:00,
2013-07-01 16:36:00,70.2,55.0,28.61,SSW,192,0.0,0.0,62,0.39,,,-99.99,wx200d/1.3,2013-07-01 20:36:00,
2013-07-01 16:42:00,70.3,55.0,28.61,WNW,290,0.0,2.2,62,0.39,,,-99.99,wx200d/1.3,2013-07-01 20:42:00,
2013-07-01 16:48:00,70.5,55.0,28.61,South,175,0.0,0.0,62,0.39,,,-99.99,wx200d/1.3,2013-07-01 20:48:00,
2013-07-01 16:54:00,70.7,59.0,28.61,SW,231,0.0,3.1,63,0.39,,,-99.99,wx200d/1.3,2013-07-01 20:54:00,
2013-07-01 17:00:00,70.9,59.0,28.61,WSW,239,0.0,0.0,63,0.39,,,-99.99,wx200d/1.3,2013-07-01 21:00:00,
2013-07-01 17:06:00,70.9,59.0,28.61,South,173,0.0,0.0,64,0.39,,,-99.99,wx200d/1.3,2013-07-01 21:06:00,
2013-07-01 17:12:00,70.9,59.0,28.61,West,267,0.0,0.0,64,0.39,,,-99.99,wx200d/1.3,2013-07-01 21:12:00,
2013-07-01 17:18:00,71.1,59.0,28.61,South,170,0.0,2.7,64,0.39,,,-99.99,wx200d/1.3,2013-07-01 21:18:00,
2013-07-01 17:24:00,71.2,59.0,28.61,SW,225,0.0,2.2,64,0.39,,,-99.99,wx200d/1.3,2013-07-01 21:24:00,
2013-07-01 17:30:00,71.1,59.0,28.61,South,187,2.7,0.0,64,0.39,,,-99.99,wx200d/1.3,2013-07-01 21:30:00,
2013-07-01 17:36:00,70.9,57.0,28.61,South,178,2.7,4.9,62,0.39,,,-99.99,wx200d/1.3,2013-07-01 21:36:00,
2013-07-01 17:42:00,70.9,57.0,28.61,SSW,199,0.0,0.0,61,0.39,,,-99.99,wx200d/1.3,2013-07-01 21:42:00,
2013-07-01 17:48:00,71.1,57.0,28.61,SW,223,0.0,0.0,61,0.39,,,-99.99,wx200d/1.3,2013-07-01 21:48:00,
2013-07-01 17:54:00,71.1,57.0,28.61,West,264,0.0,0.0,62,0.39,,,-99.99,wx200d/1.3,2013-07-01 21:54:00,
2013-07-01 18:00:00,71.1,57.0,28.61,SSW,194,0.0,0.0,62,0.39,,,-99.99,wx200d/1.3,2013-07-01 22:00:00,
2013-07-01 18:06:00,71.1,57.0,28.61,South,181,0.0,2.7,62,0.39,,,-99.99,wx200d/1.3,2013-07-01 22:06:00,
2013-07-01 18:12:00,70.9,57.0,28.61,SW,229,0.0,0.0,62,0.39,,,-99.99,wx200d/1.3,2013-07-01 22:12:00,
2013-07-01 18:18:00,70.9,57.0,28.61,South,178,0.0,0.0,62,0.00,,,-99.99,wx200d/1.3,2013-07-01 22:18:00,
2013-07-01 18:22:00,70.7,57.0,28.61,SW,229,0.0,2.2,62,0.00,,,-99.99,wx200d/1.3,2013-07-01 22:22:00,
2013-07-01 18:28:00,70.7,57.0,28.61,SSE,154,0.0,0.0,62,0.00,,,-99.99,wx200d/1.3,2013-07-01 22:28:00,
2013-07-01 18:34:00,70.7,59.0,28.61,WSW,241,0.0,0.0,63,0.00,,,-99.99,wx200d/1.3,2013-07-01 22:34:00,
2013-07-01 18:40:00,70.7,59.0,28.64,South,185,0.0,2.2,63,0.00,,,-99.99,wx200d/1.3,2013-07-01 22:40:00,
2013-07-01 18:46:00,70.7,59.0,28.64,South,179,0.0,0.0,64,0.00,,,-99.99,wx200d/1.3,2013-07-01 22:46:00,
2013-07-01 18:52:00,70.9,59.0,28.64,South,185,0.0,0.0,64,0.00,,,-99.99,wx200d/1.3,2013-07-01 22:52:00,
2013-07-01 18:58:00,70.9,59.0,28.64,SSE,168,0.0,0.0,64,0.00,,,-99.99,wx200d/1.3,2013-07-01 22:58:00,
2013-07-01 19:04:00,70.9,59.0,28.64,South,183,0.0,0.0,64,0.00,,,-99.99,wx200d/1.3,2013-07-01 23:04:00,
2013-07-01 19:10:00,70.9,59.0,28.64,South,183,0.0,0.0,65,0.00,,,-99.99,wx200d/1.3,2013-07-01 23:10:00,
2013-07-01 19:16:00,70.9,59.0,28.64,SSW,192,0.0,0.0,65,0.00,,,-99.99,wx200d/1.3,2013-07-01 23:16:00,
2013-07-01 19:22:00,70.9,59.0,28.64,SW,231,0.0,0.0,65,0.00,,,-99.99,wx200d/1.3,2013-07-01 23:22:00,
2013-07-01 19:28:00,70.7,59.0,28.64,SSW,205,0.0,0.0,66,0.00,,,-99.99,wx200d/1.3,2013-07-01 23:28:00,
2013-07-01 19:34:00,70.7,59.0,28.64,SSW,203,0.0,0.0,66,0.00,,,-99.99,wx200d/1.3,2013-07-01 23:34:00,
2013-07-01 19:40:00,70.7,59.0,28.64,SSW,199,0.0,0.0,66,0.00,,,-99.99,wx200d/1.3,2013-07-01 23:40:00,
2013-07-01 19:46:00,70.7,59.0,28.64,South,181,0.0,0.0,66,0.00,,,-99.99,wx200d/1.3,2013-07-01 23:46:00,
2013-07-01 19:52:00,70.7,59.0,28.64,WSW,250,0.0,0.0,66,0.00,,,-99.99,wx200d/1.3,2013-07-01 23:52:00,
2013-07-01 19:58:00,70.7,59.0,28.64,SSW,211,0.0,0.0,66,0.00,,,-99.99,wx200d/1.3,2013-07-01 23:58:00,
2013-07-01 20:04:00,70.7,61.0,28.64,South,184,0.0,0.0,67,0.00,,,-99.99,wx200d/1.3,2013-07-02 00:04:00,
2013-07-01 20:10:00,70.5,59.0,28.64,SSE,168,0.0,0.0,67,0.00,,,-99.99,wx200d/1.3,2013-07-02 00:10:00,
2013-07-01 20:16:00,70.5,59.0,28.64,SSW,201,0.0,0.0,67,0.00,,,-99.99,wx200d/1.3,2013-07-02 00:16:00,
2013-07-01 20:22:00,70.5,59.0,28.64,South,186,2.2,3.6,67,0.00,,,-99.99,wx200d/1.3,2013-07-02 00:22:00,
2013-07-01 20:28:00,70.5,59.0,28.64,SSW,195,0.0,2.2,67,0.00,,,-99.99,wx200d/1.3,2013-07-02 00:28:00,
2013-07-01 20:34:00,70.5,59.0,28.64,SW,214,0.0,0.0,68,0.00,,,-99.99,wx200d/1.3,2013-07-02 00:34:00,
2013-07-01 20:40:00,70.5,59.0,28.64,South,174,0.0,0.0,68,0.00,,,-99.99,wx200d/1.3,2013-07-02 00:40:00,
2013-07-01 20:46:00,70.3,59.0,28.64,South,190,0.0,0.0,68,0.00,,,-99.99,wx200d/1.3,2013-07-02 00:46:00,
2013-07-01 20:52:00,70.3,59.0,28.64,WSW,256,0.0,0.0,68,0.00,,,-99.99,wx200d/1.3,2013-07-02 00:52:00,
2013-07-01 20:58:00,70.3,59.0,28.64,SW,232,0.0,0.0,68,0.00,,,-99.99,wx200d/1.3,2013-07-02 00:58:00,
2013-07-01 21:04:00,70.3,59.0,28.67,West,260,0.0,0.0,68,0.00,,,-99.99,wx200d/1.3,2013-07-02 01:04:00,
2013-07-01 21:10:00,70.3,59.0,28.67,South,179,0.0,0.0,68,0.00,,,-99.99,wx200d/1.3,2013-07-02 01:10:00,
2013-07-01 21:16:00,70.3,59.0,28.67,South,190,0.0,0.0,68,0.00,,,-99.99,wx200d/1.3,2013-07-02 01:16:00,
2013-07-01 21:22:00,70.3,59.0,28.67,SW,231,0.0,0.0,69,0.00,,,-99.99,wx200d/1.3,2013-07-02 01:22:00,
2013-07-01 21:28:00,70.3,59.0,28.67,SW,220,0.0,3.6,69,0.00,,,-99.99,wx200d/1.3,2013-07-02 01:28:00,
2013-07-01 21:34:00,70.2,59.0,28.67,South,185,2.2,3.1,69,0.00,,,-99.99,wx200d/1.3,2013-07-02 01:34:00,
2013-07-01 21:40:00,70.2,59.0,28.67,SE,142,2.2,3.6,69,0.00,,,-99.99,wx200d/1.3,2013-07-02 01:40:00,
2013-07-01 21:46:00,70.0,59.0,28.67,SSW,198,0.0,3.1,69,0.00,,,-99.99,wx200d/1.3,2013-07-02 01:46:00,
2013-07-01 21:52:00,70.0,59.0,28.67,SSW,213,3.6,3.6,69,0.00,,,-99.99,wx200d/1.3,2013-07-02 01:52:00,
2013-07-01 21:58:00,70.0,59.0,28.67,SSW,204,0.0,0.0,69,0.00,,,-99.99,wx200d/1.3,2013-07-02 01:58:00,
2013-07-01 22:04:00,70.0,59.0,28.67,South,182,0.0,0.0,69,0.00,,,-99.99,wx200d/1.3,2013-07-02 02:04:00,
2013-07-01 22:10:00,69.8,59.0,28.67,SW,224,0.0,3.6,69,0.00,,,-99.99,wx200d/1.3,2013-07-02 02:10:00,
2013-07-01 22:16:00,69.8,59.0,28.67,WSW,254,0.0,2.2,69,0.00,,,-99.99,wx200d/1.3,2013-07-02 02:16:00,
2013-07-01 22:22:00,69.8,59.0,28.67,SSE,165,3.6,0.0,69,0.00,,,-99.99,wx200d/1.3,2013-07-02 02:22:00,
2013-07-01 22:28:00,69.8,59.0,28.67,SSW,211,0.0,0.0,69,0.00,,,-99.99,wx200d/1.3,2013-07-02 02:28:00,
2013-07-01 22:34:00,69.8,59.0,28.67,SSW,199,2.2,0.0,69,0.00,,,-99.99,wx200d/1.3,2013-07-02 02:34:00,
2013-07-01 22:40:00,69.8,59.0,28.67,SSE,148,2.2,0.0,70,0.00,,,-99.99,wx200d/1.3,2013-07-02 02:40:00,
2013-07-01 22:46:00,69.8,59.0,28.67,South,177,2.7,3.1,70,0.00,,,-99.99,wx200d/1.3,2013-07-02 02:46:00,
2013-07-01 22:52:00,69.6,59.0,28.67,West,268,0.0,0.0,70,0.00,,,-99.99,wx200d/1.3,2013-07-02 02:52:00,
2013-07-01 22:58:00,69.6,59.0,28.67,SSE,160,3.6,3.6,70,0.00,,,-99.99,wx200d/1.3,2013-07-02 02:58:00,
2013-07-01 23:04:00,69.6,59.0,28.67,South,179,0.0,2.2,70,0.00,,,-99.99,wx200d/1.3,2013-07-02 03:04:00,
2013-07-01 23:10:00,69.6,59.0,28.67,South,182,4.5,5.8,70,0.00,,,-99.99,wx200d/1.3,2013-07-02 03:10:00,
2013-07-01 23:16:00,69.6,59.0,28.67,South,177,3.1,0.0,70,0.00,,,-99.99,wx200d/1.3,2013-07-02 03:16:00,
2013-07-01 23:22:00,69.4,59.0,28.67,South,186,2.2,2.7,70,0.00,,,-99.99,wx200d/1.3,2013-07-02 03:22:00,
2013-07-01 23:28:00,69.4,59.0,28.67,South,173,3.1,3.1,70,0.00,,,-99.99,wx200d/1.3,2013-07-02 03:28:00,
2013-07-01 23:34:00,69.4,59.0,28.67,SSE,159,0.0,2.7,70,0.00,,,-99.99,wx200d/1.3,2013-07-02 03:34:00,
2013-07-01 23:40:00,69.3,59.0,28.67,South,185,0.0,4.9,70,0.00,,,-99.99,wx200d/1.3,2013-07-02 03:40:00,
2013-07-01 23:46:00,69.3,59.0,28.67,South,177,0.0,0.0,70,0.00,,,-99.99,wx200d/1.3,2013-07-02 03:46:00,
2013-07-01 23:52:00,69.3,59.0,28.67,WSW,239,0.0,2.7,70,0.00,,,-99.99,wx200d/1.3,2013-07-02 03:52:00,
2013-07-01 23:58:00,69.3,59.0,28.67,SSW,195,3.6,0.0,70,0.00,,,-99.99,wx200d/1.3,2013-07-02 03:58:00,